WGS SV-4

operational
NORAD ID: 38070 Int'l Des: 2012-003 Owner: AFSMC Country: US
HEOCIRCULARGSOGEO

关于 WGS SV-4

正在加载描述...

实时位置

正在加载3D地球...

即将过境

高度历史

Altitude vs Time

uPlot chart will show altitude changes over time

两行轨道根数

1 38070U 12003A 26062.57866545 -.00000228 00000-0 00000-0 0 9999
2 38070 0.0093 146.7442 0000857 131.6967 179.5708 1.00270572 43089
Epoch: Mar 3, 2026 • Age: 31 hours

当前状态

高度 35785.7 km
速度 3.07 km/s
星下点 -0.02°S, 88.38°E
发射日期 Jan 20, 2012
运行时间 14.1 years
类型 other

技术详情

分类 Payload
质量 5768.00 kg
干质量 2500.00 kg
总质量 5768.00 kg
长度 6.00 m
直径 3.00 m
跨度 40.90 m
形状 Box + 2 Pan
制造商 BOES
平台类型 BSS-702HP
阶段状态 In Orbit
所有者/国家 AFSMC/US

大型星座

Loading constellations...